contact:dominique.lefevre@mio.osupytheas.fr, maurice.libes@osupytheas.fr, didier.mallarino@osupytheas.fr
Project:EMSO http://www.emso-fr.org/EMSO-France
Depth: 2436.0 m
Title:EMSO Ligure Ouest : Data MII capteur MICROCAT
DateTime_Computer,Latitude,Longitude,Temperature,Conductivity,Pressure,DateTime_Instrument
DateTime_Computer,Latitude,Longitude,degC,S m-1,dbar,DateTime_Instrument
2020-04-17T00:00:23Z,42.805,6.029,13.2978,4.59996,2470.077,2020-4-17T02:01:03Z
2020-04-17T00:03:27Z,42.805,6.029,13.2976,4.59988,2470.053,2020-4-17T02:04:06Z
2020-04-17T00:06:30Z,42.805,6.029,13.2983,4.59998,2470.063,2020-4-17T02:07:10Z
2020-04-17T00:09:33Z,42.805,6.029,13.2969,4.60003,2470.017,2020-4-17T02:10:13Z
2020-04-17T00:12:36Z,42.805,6.029,13.2980,4.60001,2470.077,2020-4-17T02:13:16Z
2020-04-17T00:15:40Z,42.805,6.029,13.2977,4.59997,2470.03,2020-4-17T02:16:19Z
2020-04-17T00:18:43Z,42.805,6.029,13.2979,4.59991,2470.063,2020-4-17T02:19:23Z
2020-04-17T00:21:46Z,42.805,6.029,13.2983,4.60004,2470.04,2020-4-17T02:22:26Z
2020-04-17T00:24:49Z,42.805,6.029,13.2971,4.59978,2470.063,2020-4-17T02:25:29Z
2020-04-17T00:27:53Z,42.805,6.029,13.2984,4.59994,2470.063,2020-4-17T02:28:32Z
2020-04-17T00:30:56Z,42.805,6.029,13.2978,4.59978,2470.077,2020-4-17T02:31:36Z
2020-04-17T00:33:59Z,42.805,6.029,13.2982,4.59997,2470.04,2020-4-17T02:34:39Z
2020-04-17T00:37:02Z,42.805,6.029,13.2981,4.59999,2470.077,2020-4-17T02:37:42Z
2020-04-17T00:40:06Z,42.805,6.029,13.2978,4.59996,2470.1,2020-4-17T02:40:45Z
2020-04-17T00:43:09Z,42.805,6.029,13.2976,4.59989,2470.077,2020-4-17T02:43:49Z
2020-04-17T00:46:12Z,42.805,6.029,13.2972,4.59989,2470.087,2020-4-17T02:46:52Z
2020-04-17T00:49:15Z,42.805,6.029,13.2978,4.59992,2470.063,2020-4-17T02:49:55Z
2020-04-17T00:52:19Z,42.805,6.029,13.2976,4.59994,2470.04,2020-4-17T02:52:58Z
2020-04-17T00:55:22Z,42.805,6.029,13.2979,4.59994,2470.077,2020-4-17T02:56:01Z
2020-04-17T00:58:25Z,42.805,6.029,13.2971,4.59998,2470.077,2020-4-17T02:59:05Z
2020-04-17T01:01:29Z,42.805,6.029,13.2984,4.59993,2470.04,2020-4-17T03:02:08Z
2020-04-17T01:04:32Z,42.805,6.029,13.2984,4.59990,2470.063,2020-4-17T03:05:12Z
2020-04-17T01:07:35Z,42.805,6.029,13.2976,4.59998,2470.04,2020-4-17T03:08:15Z
2020-04-17T01:10:38Z,42.805,6.029,13.2979,4.59997,2470.077,2020-4-17T03:11:18Z
2020-04-17T01:13:41Z,42.805,6.029,13.2976,4.59994,2470.1,2020-4-17T03:14:21Z
2020-04-17T01:16:45Z,42.805,6.029,13.2981,4.59994,2470.087,2020-4-17T03:17:24Z
2020-04-17T01:19:48Z,42.805,6.029,13.2977,4.59993,2470.063,2020-4-17T03:20:28Z
2020-04-17T01:22:51Z,42.805,6.029,13.2975,4.59982,2470.063,2020-4-17T03:23:31Z
2020-04-17T01:25:55Z,42.805,6.029,13.2976,4.59986,2470.1,2020-4-17T03:26:34Z
2020-04-17T01:28:58Z,42.805,6.029,13.2974,4.59988,2470.1,2020-4-17T03:29:38Z
2020-04-17T01:32:01Z,42.805,6.029,13.2976,4.59991,2470.1,2020-4-17T03:32:41Z
2020-04-17T01:35:04Z,42.805,6.029,13.2975,4.59996,2470.11,2020-4-17T03:35:44Z
2020-04-17T01:38:08Z,42.805,6.029,13.2976,4.59983,2470.1,2020-4-17T03:38:47Z
2020-04-17T01:41:11Z,42.805,6.029,13.2979,4.59993,2470.1,2020-4-17T03:41:51Z
2020-04-17T01:44:14Z,42.805,6.029,13.2981,4.59990,2470.087,2020-4-17T03:44:54Z
2020-04-17T01:47:17Z,42.805,6.029,13.2979,4.59987,2470.087,2020-4-17T03:47:57Z
2020-04-17T01:50:21Z,42.805,6.029,13.2979,4.59996,2470.1,2020-4-17T03:51:01Z
2020-04-17T01:53:24Z,42.805,6.029,13.2981,4.59990,2470.11,2020-4-17T03:54:04Z
2020-04-17T01:56:27Z,42.805,6.029,13.2976,4.59996,2470.124,2020-4-17T03:57:07Z
2020-04-17T01:59:31Z,42.805,6.029,13.2974,4.59995,2470.124,2020-4-17T04:00:10Z
2020-04-17T02:02:34Z,42.805,6.029,13.2981,4.59996,2470.087,2020-4-17T04:03:13Z
2020-04-17T02:05:37Z,42.805,6.029,13.2976,4.59993,2470.11,2020-4-17T04:06:17Z
2020-04-17T02:08:40Z,42.805,6.029,13.2977,4.59987,2470.147,2020-4-17T04:09:20Z
2020-04-17T02:11:44Z,42.805,6.029,13.2977,4.59994,2470.124,2020-4-17T04:12:23Z
2020-04-17T02:14:47Z,42.805,6.029,13.2988,4.60001,2470.11,2020-4-17T04:15:26Z
2020-04-17T02:17:50Z,42.805,6.029,13.2991,4.59998,2470.11,2020-4-17T04:18:30Z
2020-04-17T02:20:53Z,42.805,6.029,13.2982,4.59996,2470.124,2020-4-17T04:21:33Z
2020-04-17T02:23:57Z,42.805,6.029,13.2975,4.59996,2470.133,2020-4-17T04:24:36Z
2020-04-17T02:27:00Z,42.805,6.029,13.2982,4.59990,2470.147,2020-4-17T04:27:39Z
2020-04-17T02:30:03Z,42.805,6.029,13.2978,4.59994,2470.11,2020-4-17T04:30:43Z
2020-04-17T02:33:06Z,42.805,6.029,13.2976,4.59993,2470.133,2020-4-17T04:33:46Z
2020-04-17T02:36:09Z,42.805,6.029,13.2976,4.59996,2470.087,2020-4-17T04:36:49Z
2020-04-17T02:39:13Z,42.805,6.029,13.2982,4.59994,2470.147,2020-4-17T04:39:52Z
2020-04-17T02:42:16Z,42.805,6.029,13.2979,4.59984,2470.133,2020-4-17T04:42:56Z
2020-04-17T02:45:19Z,42.805,6.029,13.2983,4.59994,2470.124,2020-4-17T04:45:59Z
2020-04-17T02:48:23Z,42.805,6.029,13.2982,4.59991,2470.133,2020-4-17T04:49:02Z
2020-04-17T02:51:26Z,42.805,6.029,13.2978,4.59981,2470.133,2020-4-17T04:52:06Z
2020-04-17T02:54:29Z,42.805,6.029,13.2980,4.59996,2470.147,2020-4-17T04:55:09Z
2020-04-17T02:57:32Z,42.805,6.029,13.2981,4.59993,2470.147,2020-4-17T04:58:12Z
2020-04-17T03:00:36Z,42.805,6.029,13.2977,4.59983,2470.133,2020-4-17T05:01:16Z
2020-04-17T03:03:39Z,42.805,6.029,13.2978,4.59992,2470.124,2020-4-17T05:04:19Z
2020-04-17T03:06:42Z,42.805,6.029,13.2983,4.59992,2470.156,2020-4-17T05:07:22Z
2020-04-17T03:09:46Z,42.805,6.029,13.2981,4.59985,2470.11,2020-4-17T05:10:25Z
2020-04-17T03:12:49Z,42.805,6.029,13.2981,4.59993,2470.11,2020-4-17T05:13:29Z
2020-04-17T03:15:52Z,42.805,6.029,13.2977,4.59992,2470.147,2020-4-17T05:16:32Z
2020-04-17T03:18:55Z,42.805,6.029,13.2983,4.59994,2470.133,2020-4-17T05:19:35Z
2020-04-17T03:21:59Z,42.805,6.029,13.2977,4.59987,2470.156,2020-4-17T05:22:38Z
2020-04-17T03:25:02Z,42.805,6.029,13.2974,4.59986,2470.124,2020-4-17T05:25:42Z
2020-04-17T03:28:05Z,42.805,6.029,13.2985,4.59981,2470.156,2020-4-17T05:28:45Z
2020-04-17T03:31:09Z,42.805,6.029,13.2978,4.59998,2470.124,2020-4-17T05:31:48Z
2020-04-17T03:34:12Z,42.805,6.029,13.2974,4.59981,2470.133,2020-4-17T05:34:52Z
2020-04-17T03:37:15Z,42.805,6.029,13.2980,4.59985,2470.147,2020-4-17T05:37:55Z
2020-04-17T03:40:18Z,42.805,6.029,13.2978,4.59991,2470.133,2020-4-17T05:40:58Z
2020-04-17T03:43:22Z,42.805,6.029,13.2982,4.59987,2470.147,2020-4-17T05:44:01Z
2020-04-17T03:46:25Z,42.805,6.029,13.2976,4.59987,2470.1,2020-4-17T05:47:05Z
2020-04-17T03:49:28Z,42.805,6.029,13.2981,4.59996,2470.133,2020-4-17T05:50:08Z
2020-04-17T03:52:32Z,42.805,6.029,13.2974,4.59993,2470.11,2020-4-17T05:53:12Z
2020-04-17T03:55:35Z,42.805,6.029,13.2984,4.60000,2470.133,2020-4-17T05:56:15Z
2020-04-17T03:58:38Z,42.805,6.029,13.2981,4.59995,2470.124,2020-4-17T05:59:18Z
2020-04-17T04:01:41Z,42.805,6.029,13.2977,4.59998,2470.11,2020-4-17T06:02:21Z
2020-04-17T04:04:45Z,42.805,6.029,13.2974,4.59996,2470.11,2020-4-17T06:05:24Z
2020-04-17T04:07:48Z,42.805,6.029,13.2982,4.59996,2470.147,2020-4-17T06:08:28Z
2020-04-17T04:10:51Z,42.805,6.029,13.2979,4.59986,2470.133,2020-4-17T06:11:31Z
2020-04-17T04:13:55Z,42.805,6.029,13.2984,4.60000,2470.11,2020-4-17T06:14:34Z
2020-04-17T04:16:58Z,42.805,6.029,13.2985,4.59997,2470.133,2020-4-17T06:17:38Z
2020-04-17T04:20:01Z,42.805,6.029,13.2978,4.59994,2470.147,2020-4-17T06:20:41Z
2020-04-17T04:23:04Z,42.805,6.029,13.2975,4.60001,2470.133,2020-4-17T06:23:44Z
2020-04-17T04:26:08Z,42.805,6.029,13.2975,4.59994,2470.133,2020-4-17T06:26:47Z
2020-04-17T04:29:11Z,42.805,6.029,13.2979,4.59990,2470.124,2020-4-17T06:29:51Z
2020-04-17T04:32:14Z,42.805,6.029,13.2993,4.59991,2470.147,2020-4-17T06:32:54Z
2020-04-17T04:35:17Z,42.805,6.029,13.2978,4.59998,2470.147,2020-4-17T06:35:57Z
2020-04-17T04:38:21Z,42.805,6.029,13.2979,4.59996,2470.11,2020-4-17T06:39:01Z
2020-04-17T04:41:24Z,42.805,6.029,13.2975,4.59997,2470.133,2020-4-17T06:42:04Z
2020-04-17T04:44:27Z,42.805,6.029,13.2979,4.59991,2470.124,2020-4-17T06:45:07Z
2020-04-17T04:47:31Z,42.805,6.029,13.2984,4.60001,2470.096,2020-4-17T06:48:10Z
2020-04-17T04:50:34Z,42.805,6.029,13.2979,4.59978,2470.124,2020-4-17T06:51:14Z
2020-04-17T04:53:37Z,42.805,6.029,13.2978,4.59993,2470.156,2020-4-17T06:54:17Z
2020-04-17T04:56:40Z,42.805,6.029,13.2983,4.59996,2470.124,2020-4-17T06:57:20Z
2020-04-17T04:59:44Z,42.805,6.029,13.2979,4.59994,2470.133,2020-4-17T07:00:23Z
2020-04-17T05:02:47Z,42.805,6.029,13.2978,4.59998,2470.147,2020-4-17T07:03:27Z
2020-04-17T05:05:50Z,42.805,6.029,13.2974,4.59987,2470.133,2020-4-17T07:06:30Z
2020-04-17T05:08:53Z,42.805,6.029,13.2978,4.59993,2470.147,2020-4-17T07:09:33Z
2020-04-17T05:11:57Z,42.805,6.029,13.2985,4.60002,2470.156,2020-4-17T07:12:36Z
2020-04-17T05:15:00Z,42.805,6.029,13.2976,4.59996,2470.147,2020-4-17T07:15:40Z
2020-04-17T05:18:03Z,42.805,6.029,13.2981,4.59991,2470.11,2020-4-17T07:18:43Z
2020-04-17T05:21:06Z,42.805,6.029,13.2980,4.59993,2470.11,2020-4-17T07:21:46Z
2020-04-17T05:24:09Z,42.805,6.029,13.2979,4.59987,2470.147,2020-4-17T07:24:49Z
2020-04-17T05:27:13Z,42.805,6.029,13.2975,4.59996,2470.11,2020-4-17T07:27:52Z
2020-04-17T05:30:16Z,42.805,6.029,13.2980,4.59992,2470.133,2020-4-17T07:30:56Z
2020-04-17T05:33:19Z,42.805,6.029,13.2981,4.59982,2470.133,2020-4-17T07:33:59Z
2020-04-17T05:36:23Z,42.805,6.029,13.2981,4.59988,2470.156,2020-4-17T07:37:02Z
2020-04-17T05:39:26Z,42.805,6.029,13.2978,4.59998,2470.147,2020-4-17T07:40:05Z
2020-04-17T05:42:29Z,42.805,6.029,13.2979,4.59995,2470.11,2020-4-17T07:43:09Z
2020-04-17T05:45:32Z,42.805,6.029,13.2973,4.59991,2470.147,2020-4-17T07:46:12Z
2020-04-17T05:48:35Z,42.805,6.029,13.2979,4.59997,2470.119,2020-4-17T07:49:15Z
2020-04-17T05:51:39Z,42.805,6.029,13.2985,4.59996,2470.11,2020-4-17T07:52:18Z
2020-04-17T05:54:42Z,42.805,6.029,13.2976,4.59996,2470.124,2020-4-17T07:55:22Z
2020-04-17T05:57:45Z,42.805,6.029,13.2982,4.59997,2470.133,2020-4-17T07:58:25Z
2020-04-17T06:00:48Z,42.805,6.029,13.2976,4.59984,2470.124,2020-4-17T08:01:28Z
2020-04-17T06:03:52Z,42.805,6.029,13.2983,4.59987,2470.133,2020-4-17T08:04:31Z
2020-04-17T06:06:55Z,42.805,6.029,13.2985,4.59999,2470.11,2020-4-17T08:07:35Z
2020-04-17T06:09:58Z,42.805,6.029,13.2974,4.59988,2470.133,2020-4-17T08:10:38Z
2020-04-17T06:13:01Z,42.805,6.029,13.2979,4.59991,2470.1,2020-4-17T08:13:41Z
2020-04-17T06:16:05Z,42.805,6.029,13.2982,4.59988,2470.11,2020-4-17T08:16:44Z
2020-04-17T06:19:08Z,42.805,6.029,13.2981,4.59999,2470.1,2020-4-17T08:19:48Z
2020-04-17T06:22:11Z,42.805,6.029,13.2980,4.59996,2470.133,2020-4-17T08:22:51Z
2020-04-17T06:25:14Z,42.805,6.029,13.2976,4.59994,2470.11,2020-4-17T08:25:54Z
2020-04-17T06:28:18Z,42.805,6.029,13.2979,4.59997,2470.124,2020-4-17T08:28:57Z
2020-04-17T06:31:21Z,42.805,6.029,13.2980,4.60000,2470.11,2020-4-17T08:32:01Z
2020-04-17T06:34:24Z,42.805,6.029,13.2984,4.59998,2470.087,2020-4-17T08:35:04Z
2020-04-17T06:37:28Z,42.805,6.029,13.2982,4.59992,2470.124,2020-4-17T08:38:07Z
2020-04-17T06:40:31Z,42.805,6.029,13.2979,4.60003,2470.077,2020-4-17T08:41:11Z
2020-04-17T06:43:34Z,42.805,6.029,13.2984,4.59986,2470.11,2020-4-17T08:44:14Z
2020-04-17T06:46:38Z,42.805,6.029,13.2976,4.59983,2470.087,2020-4-17T08:47:17Z
2020-04-17T06:49:41Z,42.805,6.029,13.2978,4.59997,2470.087,2020-4-17T08:50:21Z
2020-04-17T06:52:44Z,42.805,6.029,13.2986,4.59996,2470.11,2020-4-17T08:53:24Z
2020-04-17T06:55:47Z,42.805,6.029,13.2980,4.59993,2470.11,2020-4-17T08:56:27Z
2020-04-17T06:58:50Z,42.805,6.029,13.2980,4.59981,2470.087,2020-4-17T08:59:30Z
2020-04-17T07:01:54Z,42.805,6.029,13.2984,4.60007,2470.087,2020-4-17T09:02:33Z
2020-04-17T07:04:57Z,42.805,6.029,13.2979,4.59996,2470.063,2020-4-17T09:05:37Z
2020-04-17T07:08:00Z,42.805,6.029,13.2979,4.59996,2470.087,2020-4-17T09:08:40Z
2020-04-17T07:11:03Z,42.805,6.029,13.2979,4.59986,2470.11,2020-4-17T09:11:43Z
2020-04-17T07:14:07Z,42.805,6.029,13.2976,4.59991,2470.087,2020-4-17T09:14:46Z
2020-04-17T07:17:10Z,42.805,6.029,13.2979,4.59997,2470.087,2020-4-17T09:17:50Z
2020-04-17T07:20:13Z,42.805,6.029,13.2982,4.59996,2470.087,2020-4-17T09:20:53Z
2020-04-17T07:23:16Z,42.805,6.029,13.2979,4.59987,2470.063,2020-4-17T09:23:56Z
2020-04-17T07:26:20Z,42.805,6.029,13.2974,4.59981,2470.1,2020-4-17T09:26:59Z
2020-04-17T07:29:23Z,42.805,6.029,13.2971,4.59988,2470.04,2020-4-17T09:30:03Z
2020-04-17T07:32:26Z,42.805,6.029,13.2988,4.60000,2470.077,2020-4-17T09:33:06Z
2020-04-17T07:35:29Z,42.805,6.029,13.2990,4.60000,2470.063,2020-4-17T09:36:09Z
2020-04-17T07:38:33Z,42.805,6.029,13.2982,4.59994,2470.053,2020-4-17T09:39:12Z
2020-04-17T07:41:36Z,42.805,6.029,13.2989,4.59993,2470.063,2020-4-17T09:42:15Z
2020-04-17T07:44:39Z,42.805,6.029,13.2981,4.59981,2470.1,2020-4-17T09:45:19Z
2020-04-17T07:47:42Z,42.805,6.029,13.2979,4.59991,2470.063,2020-4-17T09:48:22Z
2020-04-17T07:50:45Z,42.805,6.029,13.2978,4.59993,2470.063,2020-4-17T09:51:25Z
2020-04-17T07:53:49Z,42.805,6.029,13.2979,4.59986,2470.077,2020-4-17T09:54:28Z
2020-04-17T07:56:52Z,42.805,6.029,13.2986,4.59996,2470.04,2020-4-17T09:57:32Z
2020-04-17T07:59:55Z,42.805,6.029,13.2990,4.59994,2470.077,2020-4-17T10:00:35Z
2020-04-17T08:02:59Z,42.805,6.029,13.2976,4.59993,2470.053,2020-4-17T10:03:38Z
2020-04-17T08:06:02Z,42.805,6.029,13.2982,4.59996,2470.087,2020-4-17T10:06:42Z
2020-04-17T08:09:05Z,42.805,6.029,13.2976,4.59978,2470.04,2020-4-17T10:09:45Z
2020-04-17T08:12:08Z,42.805,6.029,13.2979,4.59983,2470.063,2020-4-17T10:12:48Z
2020-04-17T08:15:12Z,42.805,6.029,13.2979,4.59990,2470.017,2020-4-17T10:15:51Z
2020-04-17T08:18:15Z,42.805,6.029,13.2982,4.59983,2470.03,2020-4-17T10:18:54Z
2020-04-17T08:21:18Z,42.805,6.029,13.2973,4.59986,2470.063,2020-4-17T10:21:58Z
2020-04-17T08:24:21Z,42.805,6.029,13.2975,4.60000,2470.053,2020-4-17T10:25:01Z
2020-04-17T08:27:25Z,42.805,6.029,13.2975,4.59987,2470.063,2020-4-17T10:28:04Z
2020-04-17T08:30:28Z,42.805,6.029,13.2993,4.59984,2470.04,2020-4-17T10:31:07Z
2020-04-17T08:33:31Z,42.805,6.029,13.2972,4.59986,2470.04,2020-4-17T10:34:11Z
2020-04-17T08:36:34Z,42.805,6.029,13.2975,4.59991,2470.017,2020-4-17T10:37:14Z
2020-04-17T08:39:37Z,42.805,6.029,13.2979,4.59989,2470.04,2020-4-17T10:40:17Z
2020-04-17T08:42:41Z,42.805,6.029,13.2976,4.59986,2470.053,2020-4-17T10:43:20Z
2020-04-17T08:45:44Z,42.805,6.029,13.2973,4.59992,2470.04,2020-4-17T10:46:24Z
2020-04-17T08:48:47Z,42.805,6.029,13.2983,4.60001,2470.053,2020-4-17T10:49:27Z
2020-04-17T08:51:50Z,42.805,6.029,13.2982,4.59995,2470.063,2020-4-17T10:52:30Z
2020-04-17T08:54:54Z,42.805,6.029,13.2974,4.59990,2470.03,2020-4-17T10:55:34Z
2020-04-17T08:57:57Z,42.805,6.029,13.2983,4.60003,2470.04,2020-4-17T10:58:37Z
2020-04-17T09:01:00Z,42.805,6.029,13.2976,4.59991,2470.04,2020-4-17T11:01:40Z
2020-04-17T09:04:04Z,42.805,6.029,13.2982,4.59988,2470.053,2020-4-17T11:04:43Z
2020-04-17T09:07:07Z,42.805,6.029,13.2976,4.59994,2470.053,2020-4-17T11:07:47Z
2020-04-17T09:10:10Z,42.805,6.029,13.2984,4.59999,2470.053,2020-4-17T11:10:50Z
2020-04-17T09:13:14Z,42.805,6.029,13.2979,4.59981,2470.03,2020-4-17T11:13:53Z
2020-04-17T09:16:17Z,42.805,6.029,13.2982,4.59996,2470.053,2020-4-17T11:16:57Z
2020-04-17T09:19:20Z,42.805,6.029,13.2986,4.59984,2470.04,2020-4-17T11:20:00Z
2020-04-17T09:22:23Z,42.805,6.029,13.2982,4.59983,2470.04,2020-4-17T11:23:03Z
2020-04-17T09:25:27Z,42.805,6.029,13.2978,4.59996,2470.017,2020-4-17T11:26:06Z
2020-04-17T09:28:30Z,42.805,6.029,13.2982,4.59991,2470.04,2020-4-17T11:29:10Z
2020-04-17T09:31:33Z,42.805,6.029,13.2981,4.59995,2470.017,2020-4-17T11:32:13Z
2020-04-17T09:34:36Z,42.805,6.029,13.2976,4.59979,2469.993,2020-4-17T11:35:16Z
2020-04-17T09:37:40Z,42.805,6.029,13.2978,4.60009,2470.03,2020-4-17T11:38:19Z
2020-04-17T09:40:43Z,42.805,6.029,13.2983,4.60001,2470.04,2020-4-17T11:41:23Z
2020-04-17T09:43:46Z,42.805,6.029,13.2977,4.60006,2470.053,2020-4-17T11:44:26Z
2020-04-17T09:46:49Z,42.805,6.029,13.2973,4.60000,2469.993,2020-4-17T11:47:29Z
2020-04-17T09:49:53Z,42.805,6.029,13.2976,4.59986,2470.007,2020-4-17T11:50:32Z
2020-04-17T09:52:56Z,42.805,6.029,13.2971,4.59987,2470.053,2020-4-17T11:53:36Z
2020-04-17T09:55:59Z,42.805,6.029,13.2975,4.59994,2470.03,2020-4-17T11:56:39Z
2020-04-17T09:59:03Z,42.805,6.029,13.2976,4.60002,2469.993,2020-4-17T11:59:42Z
2020-04-17T10:02:06Z,42.805,6.029,13.2976,4.59999,2469.993,2020-4-17T12:02:46Z
2020-04-17T10:05:09Z,42.805,6.029,13.2982,4.59999,2469.993,2020-4-17T12:05:49Z
2020-04-17T10:08:12Z,42.805,6.029,13.2979,4.59991,2469.993,2020-4-17T12:08:52Z
2020-04-17T10:11:16Z,42.805,6.029,13.2988,4.60001,2469.993,2020-4-17T12:11:55Z
2020-04-17T10:14:19Z,42.805,6.029,13.2982,4.59999,2469.993,2020-4-17T12:14:59Z
2020-04-17T10:17:22Z,42.805,6.029,13.2977,4.59997,2470.007,2020-4-17T12:18:02Z
2020-04-17T10:20:25Z,42.805,6.029,13.2976,4.60003,2469.993,2020-4-17T12:21:05Z
2020-04-17T10:23:29Z,42.805,6.029,13.2982,4.59995,2469.97,2020-4-17T12:24:08Z
2020-04-17T10:26:32Z,42.805,6.029,13.2983,4.60001,2470.007,2020-4-17T12:27:12Z
2020-04-17T10:29:35Z,42.805,6.029,13.2979,4.59978,2470.007,2020-4-17T12:30:15Z
2020-04-17T10:32:38Z,42.805,6.029,13.2983,4.59999,2470.03,2020-4-17T12:33:18Z
2020-04-17T10:35:42Z,42.805,6.029,13.2976,4.60000,2469.993,2020-4-17T12:36:21Z
2020-04-17T10:38:45Z,42.805,6.029,13.2975,4.59997,2469.993,2020-4-17T12:39:24Z
2020-04-17T10:41:48Z,42.805,6.029,13.2976,4.59989,2469.97,2020-4-17T12:42:28Z
2020-04-17T10:44:51Z,42.805,6.029,13.2981,4.59982,2470.007,2020-4-17T12:45:31Z
2020-04-17T10:47:54Z,42.805,6.029,13.2980,4.59996,2469.97,2020-4-17T12:48:34Z
2020-04-17T10:50:58Z,42.805,6.029,13.2983,4.59990,2469.97,2020-4-17T12:51:38Z
2020-04-17T10:54:01Z,42.805,6.029,13.2983,4.59992,2470.03,2020-4-17T12:54:41Z
2020-04-17T10:57:04Z,42.805,6.029,13.2974,4.59986,2469.984,2020-4-17T12:57:44Z
2020-04-17T11:00:07Z,42.805,6.029,13.2990,4.59992,2469.984,2020-4-17T13:00:47Z
2020-04-17T11:03:11Z,42.805,6.029,13.2977,4.59994,2470.007,2020-4-17T13:03:51Z
2020-04-17T11:06:14Z,42.805,6.029,13.2983,4.60005,2469.993,2020-4-17T13:06:54Z
2020-04-17T11:09:17Z,42.805,6.029,13.2979,4.59999,2470.007,2020-4-17T13:09:57Z
2020-04-17T11:12:20Z,42.805,6.029,13.2973,4.60001,2469.993,2020-4-17T13:13:00Z
2020-04-17T11:15:24Z,42.805,6.029,13.2986,4.59999,2469.947,2020-4-17T13:16:04Z
2020-04-17T11:18:27Z,42.805,6.029,13.2979,4.60001,2469.993,2020-4-17T13:19:07Z
2020-04-17T11:21:30Z,42.805,6.029,13.2989,4.60003,2469.984,2020-4-17T13:22:10Z
2020-04-17T11:24:33Z,42.805,6.029,13.2979,4.59991,2469.984,2020-4-17T13:25:13Z
2020-04-17T11:27:37Z,42.805,6.029,13.2990,4.60006,2469.97,2020-4-17T13:28:16Z
2020-04-17T11:30:40Z,42.805,6.029,13.2978,4.59998,2469.993,2020-4-17T13:31:20Z
2020-04-17T11:33:43Z,42.805,6.029,13.2987,4.59995,2469.993,2020-4-17T13:34:23Z
2020-04-17T11:36:46Z,42.805,6.029,13.2975,4.59983,2469.947,2020-4-17T13:37:26Z
2020-04-17T11:39:50Z,42.805,6.029,13.2983,4.59985,2469.947,2020-4-17T13:40:30Z
2020-04-17T11:42:53Z,42.805,6.029,13.2979,4.59995,2469.984,2020-4-17T13:43:33Z
2020-04-17T11:45:56Z,42.805,6.029,13.2976,4.59996,2469.984,2020-4-17T13:46:36Z
2020-04-17T11:49:00Z,42.805,6.029,13.2977,4.59994,2469.97,2020-4-17T13:49:39Z
2020-04-17T11:52:03Z,42.805,6.029,13.2976,4.59981,2469.947,2020-4-17T13:52:43Z
2020-04-17T11:55:06Z,42.805,6.029,13.2982,4.59988,2469.97,2020-4-17T13:55:46Z
2020-04-17T11:58:09Z,42.805,6.029,13.2982,4.59991,2469.984,2020-4-17T13:58:49Z
2020-04-17T12:01:13Z,42.805,6.029,13.2986,4.59991,2469.97,2020-4-17T14:01:52Z
2020-04-17T12:04:16Z,42.805,6.029,13.2984,4.59990,2469.984,2020-4-17T14:04:56Z
2020-04-17T12:07:19Z,42.805,6.029,13.2979,4.59998,2469.993,2020-4-17T14:07:59Z
2020-04-17T12:10:22Z,42.805,6.029,13.2978,4.59986,2470.007,2020-4-17T14:11:02Z
2020-04-17T12:13:25Z,42.805,6.029,13.2976,4.59994,2469.984,2020-4-17T14:14:05Z
2020-04-17T12:16:29Z,42.805,6.029,13.2976,4.59996,2469.956,2020-4-17T14:17:08Z
2020-04-17T12:19:32Z,42.805,6.029,13.2969,4.59981,2469.97,2020-4-17T14:20:12Z
2020-04-17T12:22:35Z,42.805,6.029,13.2975,4.59993,2469.984,2020-4-17T14:23:15Z
2020-04-17T12:25:39Z,42.805,6.029,13.2980,4.59991,2470.007,2020-4-17T14:26:18Z
2020-04-17T12:28:42Z,42.805,6.029,13.2986,4.59998,2469.993,2020-4-17T14:29:22Z
2020-04-17T12:31:45Z,42.805,6.029,13.2985,4.60000,2469.984,2020-4-17T14:32:25Z
2020-04-17T12:34:48Z,42.805,6.029,13.2983,4.59997,2469.993,2020-4-17T14:35:28Z
2020-04-17T12:37:51Z,42.805,6.029,13.2985,4.60001,2469.993,2020-4-17T14:38:31Z
2020-04-17T12:40:55Z,42.805,6.029,13.2974,4.59986,2470.007,2020-4-17T14:41:34Z
2020-04-17T12:43:58Z,42.805,6.029,13.2978,4.60001,2470.007,2020-4-17T14:44:38Z
2020-04-17T12:47:01Z,42.805,6.029,13.2986,4.59999,2470.007,2020-4-17T14:47:41Z
2020-04-17T12:50:05Z,42.805,6.029,13.2982,4.59994,2469.984,2020-4-17T14:50:44Z
2020-04-17T12:53:08Z,42.805,6.029,13.2979,4.59984,2470.007,2020-4-17T14:53:48Z
2020-04-17T12:56:11Z,42.805,6.029,13.2980,4.59991,2469.993,2020-4-17T14:56:51Z
2020-04-17T12:59:15Z,42.805,6.029,13.2980,4.59996,2470.03,2020-4-17T14:59:54Z
2020-04-17T13:02:18Z,42.805,6.029,13.2978,4.59990,2470.03,2020-4-17T15:02:57Z
2020-04-17T13:05:21Z,42.805,6.029,13.2982,4.59993,2469.984,2020-4-17T15:06:01Z
2020-04-17T13:08:24Z,42.805,6.029,13.2982,4.59988,2469.993,2020-4-17T15:09:04Z
2020-04-17T13:11:27Z,42.805,6.029,13.2983,4.59987,2469.984,2020-4-17T15:12:07Z
2020-04-17T13:14:31Z,42.805,6.029,13.2979,4.59991,2469.97,2020-4-17T15:15:10Z
2020-04-17T13:17:34Z,42.805,6.029,13.2980,4.59983,2470.017,2020-4-17T15:18:14Z
2020-04-17T13:20:37Z,42.805,6.029,13.2981,4.59991,2470.03,2020-4-17T15:21:17Z
2020-04-17T13:23:40Z,42.805,6.029,13.2971,4.59983,2469.993,2020-4-17T15:24:20Z
2020-04-17T13:26:44Z,42.805,6.029,13.2979,4.59990,2470.007,2020-4-17T15:27:23Z
2020-04-17T13:29:47Z,42.805,6.029,13.2984,4.60003,2469.984,2020-4-17T15:30:27Z
2020-04-17T13:32:50Z,42.805,6.029,13.2982,4.60000,2469.993,2020-4-17T15:33:30Z
2020-04-17T13:35:54Z,42.805,6.029,13.2979,4.59998,2469.993,2020-4-17T15:36:33Z
2020-04-17T13:38:57Z,42.805,6.029,13.2982,4.59997,2470.007,2020-4-17T15:39:37Z
2020-04-17T13:42:00Z,42.805,6.029,13.2971,4.59979,2470.017,2020-4-17T15:42:40Z
2020-04-17T13:45:03Z,42.805,6.029,13.2975,4.59979,2470.017,2020-4-17T15:45:43Z
2020-04-17T13:48:07Z,42.805,6.029,13.2974,4.59993,2470.03,2020-4-17T15:48:46Z
2020-04-17T13:51:10Z,42.805,6.029,13.2979,4.59993,2470.017,2020-4-17T15:51:49Z
2020-04-17T13:54:13Z,42.805,6.029,13.2967,4.59981,2469.993,2020-4-17T15:54:53Z
2020-04-17T13:57:16Z,42.805,6.029,13.2978,4.59982,2470.017,2020-4-17T15:57:56Z
2020-04-17T14:00:19Z,42.805,6.029,13.2977,4.59984,2469.97,2020-4-17T16:00:59Z
2020-04-17T14:03:23Z,42.805,6.029,13.2979,4.59991,2470.007,2020-4-17T16:04:02Z
2020-04-17T14:06:26Z,42.805,6.029,13.2979,4.59998,2469.97,2020-4-17T16:07:06Z
2020-04-17T14:09:29Z,42.805,6.029,13.2979,4.59997,2470.03,2020-4-17T16:10:09Z
2020-04-17T14:12:32Z,42.805,6.029,13.2985,4.59996,2469.96,2020-4-17T16:13:12Z
2020-04-17T14:15:36Z,42.805,6.029,13.2971,4.59985,2470.03,2020-4-17T16:16:15Z
2020-04-17T14:18:39Z,42.805,6.029,13.2982,4.59990,2469.984,2020-4-17T16:19:19Z
2020-04-17T14:21:42Z,42.805,6.029,13.2973,4.59981,2470.017,2020-4-17T16:22:22Z
2020-04-17T14:24:46Z,42.805,6.029,13.2976,4.59989,2470.003,2020-4-17T16:25:25Z
2020-04-17T14:27:49Z,42.805,6.029,13.2970,4.59981,2470.03,2020-4-17T16:28:28Z
2020-04-17T14:30:52Z,42.805,6.029,13.2974,4.59978,2470.017,2020-4-17T16:31:32Z
2020-04-17T14:33:55Z,42.805,6.029,13.2985,4.59993,2469.993,2020-4-17T16:34:35Z
2020-04-17T14:36:59Z,42.805,6.029,13.2981,4.59988,2469.993,2020-4-17T16:37:38Z
2020-04-17T14:40:02Z,42.805,6.029,13.2975,4.59988,2469.993,2020-4-17T16:40:42Z
2020-04-17T14:43:05Z,42.805,6.029,13.2975,4.59995,2470.017,2020-4-17T16:43:45Z
2020-04-17T14:46:09Z,42.805,6.029,13.2982,4.59984,2470.03,2020-4-17T16:46:48Z
2020-04-17T14:49:12Z,42.805,6.029,13.2968,4.59978,2470.007,2020-4-17T16:49:52Z
2020-04-17T14:52:15Z,42.805,6.029,13.2975,4.59992,2470.017,2020-4-17T16:52:55Z
2020-04-17T14:55:18Z,42.805,6.029,13.2985,4.59996,2470.03,2020-4-17T16:55:58Z
2020-04-17T14:58:22Z,42.805,6.029,13.2975,4.59993,2470.053,2020-4-17T16:59:01Z
2020-04-17T15:01:25Z,42.805,6.029,13.2989,4.60000,2470.017,2020-4-17T17:02:05Z
2020-04-17T15:04:28Z,42.805,6.029,13.2979,4.59979,2469.993,2020-4-17T17:05:08Z
2020-04-17T15:07:31Z,42.805,6.029,13.2967,4.59983,2469.993,2020-4-17T17:08:11Z
2020-04-17T15:10:34Z,42.805,6.029,13.2979,4.59993,2470.017,2020-4-17T17:11:14Z
2020-04-17T15:13:38Z,42.805,6.029,13.2974,4.59984,2469.993,2020-4-17T17:14:17Z